Location: Mannheim
(49.4880°N, 8.4650°E)
Time: 19:03:33
(UTC+02:00)

ISS - Visible Passes

Search period start: 23 May 2018 00:00
Search period end: 02 June 2018 00:00
Orbit: 402 x 407 km, 51.6° (Epoch: 24 May)

Date Brightness Start Highest point End Pass type
(mag) Time Alt. Az. Time Alt. Az. Time Alt. Az.
23 May -3.2 00:37:11 10° W 00:40:25 58° N 00:43:39 10° ENE visible
23 May -3.8 02:13:49 10° WNW 02:17:06 79° NNE 02:20:22 10° ESE visible
23 May -3.0 03:50:30 10° W 03:53:23 29° SW 03:56:15 10° SSE visible
23 May -3.5 22:08:38 10° SW 22:11:45 42° SSE 22:14:52 10° ENE visible
23 May -3.5 23:44:55 10° W 23:48:11 65° N 23:51:27 10° ENE visible
24 May -3.4 01:21:37 10° WNW 01:24:52 64° N 01:27:54 12° E visible
24 May -2.9 02:58:10 10° WNW 03:00:18 32° WSW 03:00:18 32° WSW visible
24 May -3.8 22:52:40 10° WSW 22:55:57 81° NNW 22:59:13 10° ENE visible
25 May -3.2 00:29:23 10° WNW 00:32:37 57° N 00:35:43 11° E visible
25 May -3.2 02:05:56 10° WNW 02:08:18 43° W 02:08:18 43° W visible
25 May -3.9 22:00:28 10° WSW 22:03:45 74° SSE 22:07:01 10° ENE visible
25 May -3.2 23:37:06 10° W 23:40:21 56° N 23:43:34 10° ENE visible
26 May -3.9 01:13:42 10° WNW 01:17:00 86° NNE 01:17:14 75° E visible
26 May -3.3 22:44:48 10° W 22:48:03 62° N 22:51:19 10° ENE visible
27 May -3.6 00:21:28 10° WNW 00:24:45 68° NNE 00:26:24 26° E visible
27 May -1.7 01:58:03 10° W 01:59:01 17° W 01:59:01 17° W visible
27 May -3.6 21:52:29 10° W 21:55:46 74° NNW 21:59:03 10° ENE visible
27 May -3.3 23:29:12 10° WNW 23:32:27 59° N 23:35:39 10° E visible
28 May -3.3 01:05:45 10° WNW 01:08:17 45° WSW 01:08:17 45° WSW visible
28 May -3.1 22:36:54 10° W 22:40:08 56° N 22:43:23 10° E visible
29 May -4.0 00:13:29 10° WNW 00:16:46 85° SSW 00:17:36 47° ESE visible
29 May -3.7 23:21:13 10° WNW 23:24:30 74° NNE 23:26:58 16° E visible
30 May -2.2 00:57:51 10° W 00:59:36 24° WSW 00:59:36 24° WSW visible
30 May -3.3 22:28:55 10° WNW 22:32:11 61° N 22:35:25 10° E visible
31 May -3.7 00:05:28 10° WNW 00:08:39 51° SSW 00:08:59 48° S visible
31 May -3.9 23:13:08 10° WNW 23:16:25 76° SSW 23:18:23 22° ESE visible
01 Jun -1.5 00:50:13 10° W 00:51:01 14° WSW 00:51:01 14° WSW visible
01 Jun -3.7 22:20:50 10° WNW 22:24:07 80° NNE 22:27:24 10° ESE visible
